GFSCGP_850_spd_021.txt.gz
Wind_Speed
28 9 17 25 21 14 16 15 19 22 22 19 8 6 8 9 19 12 18 21 16 26 32 28 24 21 16 11 8 7 4 9 9 10 9 8 11 12 12 13 12 10 9 9
14 24 22 20 17 18 18 20 23 22 17 8 18 22 8 9 12 18 25 27 15 22 33 29 26 21 17 12 7 5 6 7 5 7 9 11 12 13 11 12 11 7 7 8
26 20 20 20 21 19 19 21 21 18 21 14 5 5 6 8 9 19 27 25 18 33 36 32 27 23 17 11 8 6 7 5 4 9 10 12 9 11 8 10 10 3 5 6
22 20 18 23 21 18 19 18 21 22 17 6 2 5 3 5 9 9 13 18 33 36 33 32 29 25 17 10 9 7 9 2 2 7 12 12 11 13 7 11 11 2 3 5
17 24 25 24 22 24 21 16 17 20 15 5 6 3 5 3 8 8 3 7 26 35 32 33 29 21 14 10 11 10 6 2 2 7 13 14 14 12 3 8 5 4 1 5
21 18 20 28 22 23 22 13 17 18 14 11 7 8 7 5 5 1 6 23 33 32 31 29 23 18 14 13 12 8 6 2 3 3 9 13 11 6 5 4 4 3 2 5
21 24 22 22 22 24 17 14 10 5 5 6 7 5 8 8 7 8 10 24 29 30 32 29 26 21 19 17 12 10 8 1 4 3 7 12 9 9 6 7 5 5 4 6
15 14 29 25 30 18 20 16 10 7 4 5 7 5 8 11 9 20 30 29 31 34 32 30 25 23 21 16 15 8 10 5 6 1 5 9 10 7 7 7 8 7 7 9
18 18 17 27 20 25 14 18 14 6 3 4 5 5 7 6 8 10 19 30 32 33 31 29 26 23 20 17 15 11 11 6 6 2 3 7 6 7 8 9 7 7 9 11
7 5 21 22 20 19 27 7 8 2 8 6 5 4 6 9 9 9 10 20 28 32 30 28 26 23 19 18 15 11 9 9 6 1 4 5 6 7 8 6 9 10 12 12
18 5 7 19 23 24 14 16 7 7 6 6 1 6 8 14 9 14 11 28 31 33 31 29 27 23 19 19 16 14 11 9 8 6 6 2 6 6 8 8 10 9 11 13
30 5 11 16 18 25 18 14 8 8 5 4 6 5 7 9 11 15 18 29 31 31 29 28 28 25 20 19 16 14 12 12 8 7 7 5 3 4 8 9 13 11 8 10
21 19 4 7 11 13 25 19 9 6 5 8 6 6 5 8 10 22 23 29 33 31 29 29 28 26 22 19 17 14 14 13 9 9 7 9 4 5 8 9 11 15 17 16
20 15 24 13 9 10 26 16 16 9 5 7 10 4 6 8 9 10 24 34 36 35 33 32 31 27 24 20 19 16 13 15 11 12 8 10 5 5 9 9 11 16 17 17
5 24 18 25 20 11 22 21 21 17 9 14 9 9 12 12 11 14 35 36 34 35 34 34 32 29 26 23 21 19 13 17 14 14 10 8 8 11 13 10 10 11 14 16
10 13 23 18 20 23 15 28 22 19 14 7 13 13 8 15 22 18 30 33 33 35 38 35 32 29 28 26 23 21 17 20 16 15 13 8 12 13 11 11 9 11 13 12
8 6 12 21 20 13 14 17 23 20 13 14 11 7 4 5 13 15 26 36 36 37 40 37 35 31 30 29 25 23 20 21 18 16 15 9 16 15 14 13 13 13 11 10
12 9 4 12 15 18 9 11 18 18 15 9 8 14 8 7 16 31 30 37 38 41 41 39 37 32 30 28 27 24 24 22 19 18 16 11 17 16 16 16 15 14 12 9
16 8 5 9 16 3 10 15 23 18 12 15 9 12 14 25 16 11 20 30 37 39 38 38 39 35 32 30 29 27 27 23 21 20 20 14 15 19 15 18 17 17 14 9
13 12 5 2 8 19 9 7 10 18 14 10 11 11 10 13 8 5 23 21 36 35 36 36 39 37 35 33 32 30 29 26 24 19 23 18 12 19 17 18 17 17 18 13
5 5 8 4 4 5 11 6 8 9 8 8 22 17 12 7 10 11 18 23 34 35 36 34 39 39 37 35 33 32 31 30 25 20 22 21 17 19 17 20 19 15 17 17
6 4 3 3 3 4 7 4 6 6 8 19 25 31 25 25 20 15 16 11 31 36 35 36 40 40 39 38 35 33 33 30 26 23 24 24 20 19 19 20 21 17 19 19
2 3 3 6 4 1 11 4 14 16 17 18 12 23 32 29 26 18 13 19 32 36 36 39 40 40 41 39 36 33 31 31 28 25 27 26 24 21 20 20 21 21 20 21
6 13 4 8 11 17 18 18 16 10 18 16 22 17 33 33 27 22 17 20 23 37 37 39 41 43 42 41 38 30 30 32 30 27 28 29 27 24 21 18 21 22 23 26
3 9 11 5 9 26 30 38 34 14 10 8 10 27 35 32 31 28 24 23 28 38 33 35 39 42 39 40 38 33 31 33 33 29 29 31 30 27 24 21 21 21 23 27
7 3 3 4 23 8 21 36 33 14 20 19 14 7 15 27 30 30 32 27 32 32 30 31 35 36 37 36 35 34 33 34 36 33 33 31 33 31 27 22 22 19 20 22

GFSCGP_850_spd_024.txt.gz
Wind_Speed
20 9 16 23 25 18 11 6 11 18 17 6 10 15 16 16 12 14 27 32 33 22 25 33 37 34 27 20 11 7 4 1 3 5 6 9 11 11 12 13 15 11 10 11
7 27 22 20 12 13 13 13 19 20 18 5 14 22 20 8 9 23 29 27 25 17 23 36 37 32 26 18 10 7 2 1 1 5 8 11 12 9 11 9 13 11 1 8
25 12 21 20 16 15 16 18 20 19 14 9 8 11 13 10 13 19 19 26 19 22 37 39 35 29 24 15 9 6 3 0 1 5 9 11 9 9 10 8 12 5 2 6
17 19 19 19 19 16 18 21 19 20 11 8 7 6 6 6 7 5 9 8 18 29 37 41 35 30 23 13 10 5 3 1 1 5 10 12 12 12 7 8 8 2 2 3
11 21 24 22 26 24 21 14 15 14 13 3 20 2 8 4 5 9 6 15 24 33 41 40 36 29 19 12 11 4 2 2 2 5 11 14 12 7 4 5 4 3 1 4
19 14 23 27 17 21 23 7 8 9 7 8 15 5 14 5 7 4 0 16 27 31 36 36 31 24 17 13 11 5 3 4 4 4 10 12 6 5 6 5 4 3 2 4
14 21 14 14 22 17 13 9 5 4 6 8 8 5 13 8 8 8 9 17 28 33 35 34 31 25 19 17 13 6 5 4 6 5 7 6 6 5 8 7 6 4 2 2
14 11 25 22 20 20 24 14 6 7 4 4 7 7 11 8 9 19 26 28 32 33 33 35 30 25 18 17 13 7 7 6 7 3 5 3 6 6 9 8 6 2 4 7
16 17 6 24 18 20 10 17 13 3 2 2 5 5 6 5 6 12 17 27 30 34 35 33 29 24 19 18 12 8 10 9 8 3 1 4 6 5 8 9 5 4 7 7
4 5 17 14 17 22 21 5 8 0 8 7 4 3 6 5 8 10 11 18 27 34 34 32 29 24 19 15 13 12 12 10 7 3 2 5 6 6 7 7 6 6 5 8
11 4 5 16 18 27 7 19 8 7 7 8 5 9 7 11 12 15 15 25 37 36 36 33 30 24 20 16 17 13 13 11 8 4 2 3 5 7 7 7 6 7 7 7
23 5 9 17 4 19 18 9 21 11 7 3 6 9 6 9 16 17 18 29 35 36 37 32 29 26 23 21 19 14 14 11 8 4 4 3 4 6 7 11 8 8 6 8
6 16 4 8 2 5 20 19 13 7 4 8 9 8 3 2 15 18 23 28 35 36 36 33 31 29 25 23 19 13 15 14 11 6 5 6 3 4 7 12 12 11 10 12
9 5 28 17 12 8 7 19 14 14 7 6 14 5 4 8 10 9 19 32 37 38 38 35 33 31 26 24 20 16 15 16 13 7 8 7 5 5 8 10 14 16 14 12
7 8 19 29 17 4 6 18 20 17 14 15 8 11 9 11 14 20 34 32 33 37 38 38 37 33 28 26 22 18 13 17 16 11 10 5 7 9 11 11 10 11 10 12
6 6 6 20 29 26 16 9 24 21 10 8 13 7 9 18 25 20 28 32 33 38 40 40 38 34 31 28 24 22 17 19 19 14 11 6 12 14 11 10 11 9 9 9
4 5 7 20 20 21 19 23 10 15 19 12 8 8 8 6 11 23 27 35 37 40 42 42 41 38 33 30 25 24 21 19 22 17 13 8 14 16 12 11 14 10 8 8
7 2 3 6 6 11 13 12 15 15 18 17 8 10 15 11 28 32 42 42 39 42 44 44 42 39 34 30 27 23 24 21 23 19 16 12 14 18 15 13 13 11 8 5
17 7 4 3 14 5 11 9 13 8 9 13 17 10 12 22 22 9 44 46 47 45 43 44 42 40 36 32 29 27 28 25 26 21 19 15 13 20 19 17 15 13 11 7
16 15 4 4 6 13 6 6 8 7 10 10 11 13 11 11 7 5 39 47 47 45 43 43 43 41 36 35 33 32 31 29 28 23 18 16 12 19 18 20 17 14 11 8
2 5 11 5 4 5 5 7 7 13 10 6 21 18 12 9 14 26 33 42 46 48 45 42 43 43 40 37 37 36 32 33 26 21 17 18 14 15 18 21 19 16 14 10
4 5 2 4 5 2 20 6 5 6 7 26 28 30 30 33 30 32 28 36 45 48 47 44 42 44 41 39 39 38 35 30 27 23 19 21 19 14 17 18 20 18 17 16
2 4 5 5 2 11 9 15 21 22 12 9 31 38 38 32 31 30 26 28 38 45 47 45 41 43 43 42 41 38 33 31 29 26 22 23 24 20 17 16 19 20 18 22
5 7 3 11 2 20 19 38 38 37 30 19 22 42 38 34 36 31 28 26 31 44 46 45 43 45 44 44 43 36 32 30 30 29 25 26 27 25 22 20 17 20 21 23
4 3 7 9 11 24 14 36 35 39 33 26 4 23 35 34 36 34 28 25 27 39 46 47 44 43 42 43 43 40 33 33 32 31 29 30 29 28 25 22 18 18 20 23
5 3 1 3 15 11 19 34 33 39 37 28 23 11 8 15 35 37 32 29 31 40 47 48 43 40 42 42 42 40 35 33 33 33 32 33 33 33 30 27 23 19 14 17

GFSCGP_850_spd_030.txt.gz
Wind_Speed
12 7 19 27 20 9 15 9 10 15 2 3 8 9 18 17 12 19 28 33 37 28 25 23 23 30 35 30 34 30 21 15 11 9 8 7 8 10 9 10 12 10 14 13
6 27 20 12 18 19 9 14 21 16 6 4 11 13 17 15 14 22 25 32 33 25 22 20 21 24 28 35 34 26 17 13 10 8 6 6 9 10 9 11 9 12 10 5
26 18 13 18 15 15 19 20 18 17 5 5 6 10 16 13 11 21 26 25 25 26 22 19 17 22 30 36 31 21 15 11 9 7 5 6 10 11 8 5 7 7 3 1
19 22 18 17 24 19 22 17 14 14 3 5 4 6 12 12 11 7 18 20 18 19 20 15 18 24 34 32 24 17 13 9 8 6 3 7 10 6 3 5 4 4 2 3
12 18 28 23 21 19 12 10 12 9 5 1 3 4 7 5 9 11 10 24 18 14 11 15 20 30 33 27 20 15 11 8 7 4 3 7 5 4 6 5 5 4 2 4
9 11 20 23 13 19 6 6 4 2 3 4 10 7 6 5 9 8 6 8 11 10 11 16 23 34 31 24 18 14 10 8 6 3 3 4 4 5 7 7 5 5 3 6
5 10 2 8 8 8 10 9 1 3 1 5 7 8 15 9 9 12 12 15 8 10 19 24 36 37 31 24 19 14 8 7 6 3 2 2 4 6 7 7 6 3 1 3
8 4 12 8 9 10 17 12 7 7 4 4 7 8 7 18 24 23 14 15 12 18 22 28 38 36 29 23 19 12 8 8 8 3 1 1 5 6 8 7 5 3 3 3
9 10 5 19 9 17 6 15 9 4 2 1 4 5 7 7 8 7 9 11 20 22 25 32 36 32 27 22 17 11 11 10 8 3 1 2 4 6 7 6 4 4 4 2
5 2 12 15 12 17 14 11 7 4 7 5 4 3 5 7 9 6 6 12 19 21 25 30 36 31 25 19 16 12 11 9 7 4 2 2 5 6 6 4 5 4 4 4
3 1 4 11 18 14 5 9 3 6 5 5 1 6 7 8 7 9 8 15 22 26 28 32 35 29 23 19 17 13 13 11 8 5 3 2 5 7 6 4 6 7 5 6
4 2 5 15 7 18 20 9 9 9 7 3 3 6 4 7 7 8 10 21 24 25 28 33 34 29 24 21 19 15 13 13 8 6 5 3 5 6 5 5 5 6 7 8
9 4 2 4 3 4 22 13 12 5 5 15 4 5 2 3 6 7 9 22 24 23 27 32 33 30 26 23 21 16 16 14 10 7 6 5 6 8 9 9 7 7 7 8
10 4 4 6 2 5 17 19 17 7 5 7 20 5 5 7 7 6 11 20 25 25 29 32 33 31 27 24 23 19 17 15 12 9 8 7 7 8 10 11 10 7 7 8
6 4 3 10 13 9 1 18 20 20 13 6 5 15 6 10 11 9 18 22 24 25 29 34 34 33 29 27 25 21 17 17 15 10 9 9 7 8 7 9 11 11 9 9
6 4 6 5 12 9 10 7 20 24 20 13 6 9 8 8 4 10 23 26 27 30 33 34 34 34 32 29 27 24 19 19 17 12 11 10 10 9 8 8 9 8 9 9
2 4 5 4 10 8 8 21 11 10 15 15 15 15 5 4 7 11 22 31 34 34 34 35 38 36 34 30 27 27 21 20 19 16 13 11 12 11 9 8 8 8 7 9
6 3 2 4 4 5 7 8 13 11 8 17 12 7 10 9 23 30 32 36 36 35 34 35 36 35 33 30 28 26 23 21 21 20 16 12 15 14 11 10 9 8 8 10
9 4 3 2 2 5 1 6 5 4 11 6 8 13 7 21 8 10 31 37 37 37 35 34 33 32 33 31 29 28 26 23 22 23 19 15 17 16 13 11 9 8 8 10
8 10 4 2 2 6 2 17 15 8 6 11 13 10 9 10 7 7 34 40 37 36 36 35 33 33 32 32 31 31 30 28 24 24 22 18 16 17 15 13 11 10 9 10
4 4 8 6 3 4 11 19 16 7 5 20 19 17 19 10 15 37 33 39 37 35 36 35 33 33 32 33 33 33 32 31 24 21 23 20 17 18 16 15 13 11 9 10
3 2 3 3 4 4 17 8 7 7 17 20 22 23 23 26 36 35 35 41 40 38 35 35 34 34 33 33 35 35 34 27 26 23 24 22 19 19 20 17 15 13 10 9
3 4 2 3 2 4 11 4 6 16 19 22 28 30 28 28 30 34 36 38 41 39 39 38 37 35 34 35 36 36 33 30 28 26 25 23 21 18 21 20 19 17 14 11
1 4 3 2 6 14 27 15 18 25 27 32 31 32 25 25 28 35 35 40 37 39 41 41 37 38 35 35 37 35 33 30 30 29 28 26 24 21 22 21 20 20 18 15
1 4 2 4 5 19 5 25 28 38 37 40 42 35 27 18 22 33 35 36 36 38 41 42 41 40 38 35 36 37 35 33 31 31 30 29 28 25 21 22 21 21 19 16
1 2 1 1 4 10 18 25 33 30 36 40 40 40 31 20 10 23 33 36 36 38 39 41 41 40 39 35 34 36 37 35 32 33 33 32 31 29 26 22 20 19 18 17

GFSCGP_850_spd_033.txt.gz
Wind_Speed
24 13 25 29 29 13 18 20 22 17 7 8 16 17 20 25 21 23 27 28 30 33 33 29 19 15 16 21 25 29 32 27 22 19 14 13 11 11 12 12 13 14 14 17
10 28 31 24 21 24 23 23 23 14 12 7 16 20 18 18 22 23 26 28 28 26 26 20 14 12 14 18 25 30 29 24 18 15 11 10 9 10 11 12 11 10 13 9
27 37 22 23 21 25 29 29 24 19 4 8 10 22 19 14 15 22 24 24 23 21 15 12 10 10 14 20 27 30 25 19 15 12 10 8 8 10 8 6 6 8 6 3
22 27 24 23 28 23 26 24 23 17 8 12 3 17 19 18 20 16 21 17 12 9 8 7 8 11 15 23 29 27 21 16 14 12 8 6 7 4 3 5 5 5 4 5
18 18 28 26 30 26 22 15 17 15 12 12 17 10 18 5 18 23 18 17 10 5 7 5 7 11 20 30 29 22 18 15 14 10 7 4 2 1 3 4 5 5 5 6
17 11 22 31 18 23 12 12 12 7 9 13 17 13 25 13 18 14 13 15 6 7 2 7 12 19 30 31 26 21 17 15 12 9 5 3 2 1 5 5 4 5 6 7
16 17 3 13 22 20 23 14 8 9 9 11 11 12 19 9 13 16 17 13 5 4 6 14 21 28 34 30 24 20 16 13 12 9 4 4 1 3 5 6 4 2 3 5
14 10 21 17 16 19 27 23 10 14 13 9 13 11 9 17 25 30 22 16 7 8 11 18 26 29 31 28 23 18 15 14 12 8 5 3 2 3 5 4 2 1 3 4
11 16 11 19 13 24 23 22 17 10 1 4 5 7 13 15 14 12 18 14 10 12 17 21 26 31 30 26 22 16 15 14 12 6 4 1 1 2 3 3 2 4 3 3
6 6 12 19 21 23 20 22 12 11 13 9 4 7 9 9 14 10 10 12 12 15 19 23 27 32 28 24 19 15 14 12 11 6 4 3 1 3 1 2 2 3 4 4
10 6 10 18 20 23 11 22 8 10 7 7 4 6 8 16 15 16 13 13 17 21 23 25 27 31 27 24 20 17 16 13 11 7 5 4 2 3 2 4 5 4 5 5
7 6 7 24 14 19 22 17 22 11 9 10 5 6 1 9 3 3 6 12 17 20 22 25 28 31 28 25 22 18 17 14 11 8 6 4 3 4 5 6 5 5 6 7
7 5 11 7 8 14 28 22 22 9 4 16 11 3 1 3 5 2 7 14 18 21 22 24 28 30 29 27 23 19 17 15 11 9 7 6 5 7 7 7 6 6 6 7
7 4 10 10 6 1 21 24 21 20 13 9 16 9 13 6 7 0 5 16 18 21 24 25 28 29 28 27 23 19 17 16 13 10 9 8 7 8 9 9 7 6 7 8
2 4 7 15 14 10 5 21 26 25 20 16 10 19 21 15 14 5 8 15 20 21 24 26 29 29 29 28 24 20 17 18 15 11 11 10 9 8 9 10 10 7 8 9
3 3 10 10 11 9 10 8 21 25 22 18 10 18 19 21 10 4 8 18 22 24 25 26 29 32 31 29 25 22 19 20 17 13 12 11 10 9 8 7 7 8 7 9
2 0 5 10 2 6 10 15 12 13 18 23 20 13 5 9 12 11 13 20 25 27 27 30 34 36 34 29 26 24 21 21 19 15 13 12 11 11 9 7 6 6 6 9
4 2 2 3 1 10 2 10 12 13 9 21 21 18 17 21 27 19 11 20 25 27 29 28 32 35 35 28 25 24 23 22 21 18 15 13 14 13 11 9 8 7 9 10
14 3 2 3 6 3 6 10 6 5 5 12 8 12 16 19 15 22 18 19 27 32 33 30 32 34 36 31 27 26 25 23 23 21 18 15 16 15 14 11 9 8 8 8
14 7 4 2 4 13 9 14 6 2 7 14 12 11 10 13 13 16 17 21 25 30 29 30 31 33 35 33 30 28 28 26 25 23 21 17 18 17 15 13 10 10 10 9
6 4 9 6 3 2 13 15 2 9 3 18 15 14 15 8 14 23 18 16 26 32 33 31 31 33 35 34 33 31 29 29 25 23 22 19 17 18 15 15 12 10 11 10
5 6 5 4 4 4 22 6 2 6 12 15 17 16 20 21 28 30 27 21 18 30 32 33 31 34 35 35 35 34 31 27 26 25 24 22 19 19 19 17 15 12 11 11
2 2 1 3 2 7 14 4 5 10 14 18 20 21 21 23 24 24 25 21 18 27 34 33 34 35 36 37 37 35 30 29 27 27 25 24 21 19 20 20 19 16 13 11
1 1 2 3 5 8 7 10 14 16 16 20 21 22 22 24 23 24 25 21 19 23 32 34 33 36 39 40 40 31 30 31 29 29 27 26 25 22 22 21 20 19 17 14
2 4 4 2 6 14 6 19 21 27 21 23 24 24 22 23 23 21 22 21 21 23 30 36 36 37 40 41 41 39 35 34 33 31 29 28 27 25 23 24 23 22 19 17
1 2 2 2 4 4 17 21 26 22 27 27 28 31 26 23 23 20 18 17 20 24 28 34 36 37 39 40 41 42 39 37 36 34 32 31 30 28 25 25 25 22 21 18